Regional Weather Roundup
Issued by NWS

Home | Current Version | Previous Version | Text Only | Print | Product List | Glossary On
Versions: 1 2 3 4 5 6 7 8 9 10 11 12 13 14 15 16 17 18 19 20 21 22 23 24 25 26 27 28 29 30 31 32 33 34 35 36 37 38 39 40 41 42 43 44 45 46 47 48 49 50
334
ASUS43 KIND 060809
RWRIN

WEATHER ROUNDUP FOR INDIANA
NATIONAL WEATHER SERVICE INDIANAPOLIS IN
300 AM EST SAT FEB 06 2016

NOTE: "FAIR" INDICATES FEW OR NO CLOUDS BELOW 12,000 FEET WITH NO
SIGNIFICANT WEATHER AND/OR OBSTRUCTIONS TO VISIBILITY.

* - STATION DOES NOT REPORT WEATHER SUCH AS PRECIPITATION OR FOG.

+ - STATION NOT QUALITY CONTROLLED BY THE NATIONAL WEATHER SERVICE.
    USE DATA WITH CAUTION...ESPECIALLY DEWPOINT AND RELATIVE
    HUMIDITY OBSERVATIONS.

INZ001>003-010>013-019-020-060900-
NORTHWEST INDIANA

CITY           SKY/WX    TMP DP  RH WIND       PRES   REMARKS
GARY /AIRPORT/ CLOUDY    27  23  85 CALM      30.32S FOG
LA PORTE +     MOCLDY    23  23 100 SW5       30.31S FOG     WCI  17
MICHIGAN CITY+ CLEAR     23  23 100 S5        30.31F WCI  17
MONTICELLO +   CLEAR     23  19  85 CALM      30.32S
RENSSELAER +   CLEAR     25  21  86 CALM      30.33R
VALPARAISO     PTCLDY    23  21  92 SW5       30.31S WCI  17

$$

LMZ046-743>745-060900-
SOUTHERN LAKE MICHIGAN

STATION/POSITION TIME  TEMP    WIND        PRES    WAVE
                       AIR SEA DIR/SP/G            HT
                 (UTC) (F)     (DEG/KT/KT) (MB)    (FT)
BURNS HARBOR     0700   27     210/  8/ 10 1026.8F
MICHIGAN CITY    0700   26     180/  7/  9   N/A

$$

INZ004-005-014>016-021>024-060900-
NORTH CENTRAL INDIANA

CITY           SKY/WX    TMP DP  RH WIND       PRES   REMARKS
GOSHEN         CLOUDY    23  20  88 SW6       30.30S FOG     WCI  16
LOGANSPORT +   CLEAR     23  19  86 SW3       30.33S
PERU/GRISSOM   CLOUDY    23  22  97 SW2       30.30S
ROCHESTER +    CLEAR     28  23  80 CALM      30.32R HAZE
SOUTH BEND     CLEAR     20  19  96 SW6       30.31S FOG     WCI  12
WARSAW +       CLOUDY    23  23 100 CALM      30.31R FOG

$$

INZ006>009-017-018-025>027-060900-
NORTHEAST INDIANA

CITY           SKY/WX    TMP DP  RH WIND       PRES   REMARKS
ANGOLA *+      CLEAR     25  21  86 CALM      30.28R
AUBURN +       CLEAR     27  23  86 W3        30.31R FOG
FORT WAYNE     CLOUDY    28  25  88 W8        30.32R WCI  20
HUNTINGTON +   CLOUDY    25  21  86 CALM      30.32R FOG

$$

INZ028-029-035-036-043>045-051>053-060900-
WEST CENTRAL INDIANA

CITY           SKY/WX    TMP DP  RH WIND       PRES   REMARKS
GREENCASTLE +  CLOUDY    21  18  86 CALM      30.32S FOG
LAFAYETTE      CLOUDY    19  19 100 CALM      30.33S
TERRE HAUTE    CLOUDY    21  18  88 CALM      30.34S

$$

INZ030>032-037>040-046>048-054>057-064-065-060900-
CENTRAL INDIANA

CITY           SKY/WX    TMP DP  RH WIND       PRES   REMARKS
FISHERS *+     CLOUDY    21  21 100 CALM      30.33S
FRANKFORT +    CLOUDY    24  24  99 S3        30.33S
GREENWOOD *+   CLOUDY    23  23 100 CALM      30.33F
INDIANAPOLIS   CLOUDY    23  18  81 CALM      30.31F
-EAGLE CREEK   CLOUDY    22  19  89 CALM      30.32S
KOKOMO *+      CLOUDY    23  18  80 CALM      30.32S
MARION +       CLOUDY    23  17  78 SW5       30.33R WCI  17
MT COMFORT *+  CLOUDY    21  19  93 CALM      30.33S
SHELBYVILLE    CLOUDY    23  19  85 S3        30.32F FOG
ZIONSVILLE +   CLOUDY    23  21  93 CALM      30.32S FOG

$$

INZ033-034-041-042-049-050-058-059-060900-
EAST CENTRAL INDIANA

CITY           SKY/WX    TMP DP  RH WIND       PRES   REMARKS
MUNCIE         CLOUDY    25  21  85 SW5       30.32R FOG     WCI  19

$$

INZ060-061-067>069-081>083-085>088-060900-
SOUTHWEST INDIANA

CITY           SKY/WX    TMP DP  RH WIND       PRES   REMARKS
EVANSVILLE     CLOUDY    29  23  78 CALM      30.36S
HUNTINGBURG *+ PTCLDY    27  21  80 CALM      30.35S
WASHINGTON +   CLOUDY    25  24  95 CALM      30.34F

$$

INZ062-063-066-070>080-084-089>092-060900-
SOUTH CENTRAL AND SOUTHEAST INDIANA

CITY           SKY/WX    TMP DP  RH WIND       PRES   REMARKS
BLOOMINGTON    CLOUDY    21  18  88 CALM      30.33S
MADISON *+     PTCLDY    28  25  86 CALM      30.36R
NORTH VERNON + PTCLDY    25  25 100 CALM      30.34S FOG
SEYMOUR +      PTCLDY    27  23  86 CALM      30.35S

$$





USA.gov is the U.S. government's official web portal to all federal, state and local government web resources and services.